Simultaneous Nadir Overpasses (SNOs) Predictions

Prediction of SNOs between LANDSAT-8 and NOAA-19 Satellite Orbit:

Table of predicted SNOs for the next 14.0 days since TLE Epoch: 8/29/2020
Index Date (LANDSAT-8) Time (LANDSAT-8) Lat,Lon (LANDSAT-8) SZA (LANDSAT-8 ) Date (NOAA-19) Time (NOAA-19) Lat,Lon (NOAA-19) SZA (NOAA-19 ) Distance(km) Time Diff (sec)
1 08/31/2020 01:27:36 79.91,-174.90 72.47 08/31/2020 01:27:46 79.90,-174.98 72.46 2.18 10
2 09/02/2020 07:01:22 -79.90, -78.41 106.72 09/02/2020 07:00:58 -79.91, -78.28 106.72 2.50 24
3 09/02/2020 07:50:48 79.90, 89.20 73.29 09/02/2020 07:52:01 79.87, 89.37 73.30 4.57 73
4 09/04/2020 12:35:06 79.92, 18.26 74.13 09/04/2020 12:34:18 79.91, 18.42 74.13 3.32 48
5 09/04/2020 13:24:34 -79.89,-174.31 105.90 09/04/2020 13:25:14 -79.92,-174.37 105.87 2.92 40
6 09/06/2020 18:58:18 79.90, -77.67 74.97 09/06/2020 18:58:34 79.91, -77.58 74.99 2.29 16
7 09/09/2020 00:32:03 -79.93, 19.11 104.15 09/09/2020 00:31:45 -79.92, 19.09 104.16 0.70 18
8 09/11/2020 06:05:47 79.93, 115.70 76.72 09/11/2020 06:05:06 79.93, 115.69 76.71 0.53 41
